When you browse on this site, cookies collect data to enhance your experience and personalize the content and advertising you see.
Visit our Privacy Policy to learn more. By continuing to use the site, you agree to this use of cookies and data.
  • In Czech Republic
  • List of Countries
  • For 7 days
  • Water Temperature
  • Weather Map
  • Weather Widgets
  • user-avatar
    Login

    Hourly Weather Buenos Aires

    Today, 12 November, Tuesday

    Time Temperature Precipitation Wind Pressure Humidity
    00:00 +21°C° 0 mm 7 mps 762 mmHg 74%
    01:00 +20°C° 0 mm 7 mps 762 mmHg 76%
    02:00 +20°C° 0 mm 6 mps 762 mmHg 77%
    03:00 +19°C° 0 mm 6 mps 761 mmHg 78%
    04:00 +19°C° 0 mm 5 mps 761 mmHg 78%
    05:00 +19°C° 0 mm 5 mps 761 mmHg 79%
    06:00 +20°C° 0 mm 5 mps 761 mmHg 75%
    07:00 +20°C° 0 mm 5 mps 761 mmHg 72%
    08:00 +21°C° 0 mm 5 mps 761 mmHg 69%
    09:00 +23°C° 0 mm 5 mps 761 mmHg 63%
    10:00 +25°C° 0 mm 4 mps 760 mmHg 58%
    11:00 +27°C° 0 mm 3 mps 760 mmHg 53%
    12:00 +28°C° 0 mm 4 mps 759 mmHg 51%
    13:00 +28°C° 0 mm 4 mps 759 mmHg 50%
    14:00 +29°C° 0 mm 5 mps 758 mmHg 48%
    15:00 +28°C° 0 mm 4 mps 758 mmHg 52%
    16:00 +28°C° 0 mm 4 mps 757 mmHg 56%
    17:00 +27°C° 0 mm 4 mps 757 mmHg 60%
    18:00 +26°C° 0 mm 4 mps 757 mmHg 65%
    19:00 +26°C° 0 mm 4 mps 757 mmHg 69%
    20:00 +25°C° 0 mm 4 mps 758 mmHg 73%
    21:00 +25°C° 0 mm 4 mps 758 mmHg 74%
    22:00 +23°C° 0 mm 4 mps 757 mmHg 74%
    23:00 +23°C° 0 mm 4 mps 757 mmHg 74%

    Tomorrow, 13 November, Wednesday

    Time Temperature Precipitation Wind Pressure Humidity
    00:00 +23°C° 0 mm 4 mps 757 mmHg 78%
    01:00 +22°C° 0 mm 3 mps 756 mmHg 81%
    02:00 +22°C° 0 mm 3 mps 756 mmHg 85%
    03:00 +21°C° 0 mm 2 mps 756 mmHg 86%
    04:00 +21°C° 0 mm 2 mps 756 mmHg 88%
    05:00 +21°C° 0 mm 2 mps 757 mmHg 90%
    06:00 +24°C° 0 mm 1 mps 757 mmHg 82%
    07:00 +25°C° 0 mm 1 mps 757 mmHg 75%
    08:00 +27°C° 0 mm 1 mps 757 mmHg 67%
    09:00 +28°C° 0 mm 1 mps 756 mmHg 60%
    10:00 +30°C° 0 mm 2 mps 756 mmHg 52%
    11:00 +31°C° 0 mm 2 mps 756 mmHg 45%
    12:00 +31°C° 0 mm 3 mps 755 mmHg 45%
    13:00 +31°C° 0 mm 3 mps 755 mmHg 45%
    14:00 +31°C° 0 mm 3 mps 754 mmHg 45%
    15:00 +31°C° 0.3 mm 3 mps 754 mmHg 48%
    16:00 +30°C° 0.3 mm 2 mps 754 mmHg 50%
    17:00 +29°C° 0.3 mm 2 mps 754 mmHg 53%
    18:00 +28°C° 0.2 mm 2 mps 754 mmHg 58%
    19:00 +27°C° 0.2 mm 2 mps 754 mmHg 62%
    20:00 +26°C° 0.2 mm 2 mps 754 mmHg 66%
    21:00 +26°C° 0 mm 2 mps 754 mmHg 68%
    22:00 +25°C° 0 mm 2 mps 755 mmHg 70%
    23:00 +25°C° 0 mm 2 mps 755 mmHg 73%

    Day after tomorrow, 14 November, Thursday

    Time Temperature Precipitation Wind Pressure Humidity
    00:00 +24°C° 0 mm 2 mps 755 mmHg 75%
    01:00 +24°C° 0 mm 2 mps 754 mmHg 76%
    02:00 +24°C° 0 mm 1 mps 754 mmHg 78%
    03:00 +23°C° 0 mm 2 mps 754 mmHg 78%
    04:00 +22°C° 0 mm 3 mps 754 mmHg 78%
    05:00 +22°C° 0 mm 3 mps 754 mmHg 78%
    06:00 +23°C° 0 mm 4 mps 755 mmHg 75%
    07:00 +23°C° 0 mm 4 mps 755 mmHg 72%
    08:00 +25°C° 0 mm 5 mps 755 mmHg 69%
    09:00 +27°C° 0 mm 5 mps 755 mmHg 61%
    10:00 +28°C° 0 mm 5 mps 756 mmHg 53%
    11:00 +29°C° 0 mm 5 mps 756 mmHg 46%
    12:00 +30°C° 0 mm 5 mps 756 mmHg 42%
    13:00 +30°C° 0 mm 6 mps 756 mmHg 39%
    14:00 +30°C° 0 mm 6 mps 756 mmHg 36%
    15:00 +30°C° 0 mm 6 mps 756 mmHg 36%
    16:00 +29°C° 0 mm 5 mps 756 mmHg 35%
    17:00 +29°C° 0 mm 5 mps 756 mmHg 35%
    18:00 +28°C° 0 mm 5 mps 757 mmHg 37%
    19:00 +27°C° 0 mm 5 mps 757 mmHg 38%
    20:00 +25°C° 0 mm 4 mps 758 mmHg 39%
    21:00 +25°C° 0 mm 4 mps 758 mmHg 40%
    22:00 +24°C° 0 mm 3 mps 758 mmHg 40%
    23:00 +22°C° 0 mm 3 mps 758 mmHg 41%

    15 November, Friday

    Time Temperature Precipitation Wind Pressure Humidity
    00:00 +22°C° 0 mm 3 mps 758 mmHg 45%
    01:00 +21°C° 0 mm 2 mps 758 mmHg 48%
    02:00 +21°C° 0 mm 2 mps 757 mmHg 52%
    03:00 +21°C° 0 mm 2 mps 758 mmHg 52%
    04:00 +20°C° 0 mm 2 mps 758 mmHg 51%
    05:00 +21°C° 0 mm 1 mps 758 mmHg 51%
    06:00 +23°C° 0 mm 1 mps 758 mmHg 44%
    07:00 +25°C° 0 mm 1 mps 759 mmHg 37%
    08:00 +27°C° 0 mm 1 mps 759 mmHg 30%
    09:00 +28°C° 0 mm 1 mps 759 mmHg 28%
    10:00 +30°C° 0 mm 2 mps 758 mmHg 26%
    11:00 +32°C° 0 mm 2 mps 758 mmHg 24%
    12:00 +32°C° 0 mm 2 mps 758 mmHg 24%
    13:00 +34°C° 0 mm 3 mps 757 mmHg 25%
    14:00 +34°C° 0 mm 3 mps 756 mmHg 25%
    15:00 +33°C° 0 mm 3 mps 756 mmHg 26%
    16:00 +31°C° 0 mm 3 mps 755 mmHg 27%
    17:00 +31°C° 0 mm 3 mps 755 mmHg 28%
    18:00 +29°C° 0 mm 4 mps 755 mmHg 33%
    19:00 +28°C° 0 mm 4 mps 755 mmHg 38%
    20:00 +27°C° 0 mm 5 mps 755 mmHg 43%
    21:00 +26°C° 0 mm 5 mps 754 mmHg 44%
    22:00 +26°C° 0 mm 5 mps 754 mmHg 46%
    23:00 +24°C° 0 mm 6 mps 754 mmHg 48%

    16 November, Saturday

    Time Temperature Precipitation Wind Pressure Humidity
    00:00 +25°C° 0 mm 5 mps 754 mmHg 49%
    01:00 +23°C° 0 mm 5 mps 753 mmHg 50%
    02:00 +23°C° 0 mm 5 mps 753 mmHg 52%
    03:00 +22°C° 0 mm 5 mps 753 mmHg 53%
    04:00 +22°C° 0 mm 6 mps 754 mmHg 54%
    05:00 +22°C° 0 mm 6 mps 754 mmHg 55%
    06:00 +23°C° 0 mm 6 mps 754 mmHg 53%
    07:00 +24°C° 0 mm 6 mps 755 mmHg 51%
    08:00 +26°C° 0 mm 5 mps 755 mmHg 49%
    09:00 +28°C° 0 mm 5 mps 755 mmHg 44%
    10:00 +30°C° 0 mm 4 mps 755 mmHg 38%
    11:00 +32°C° 0 mm 4 mps 755 mmHg 33%
    12:00 +33°C° 0 mm 4 mps 755 mmHg 30%
    13:00 +33°C° 0 mm 4 mps 754 mmHg 28%
    14:00 +34°C° 0 mm 3 mps 754 mmHg 25%
    15:00 +33°C° 0 mm 3 mps 754 mmHg 23%
    16:00 +33°C° 0 mm 3 mps 754 mmHg 22%
    17:00 +31°C° 0 mm 3 mps 754 mmHg 20%
    18:00 +30°C° 0 mm 3 mps 754 mmHg 22%
    19:00 +29°C° 0 mm 2 mps 755 mmHg 24%
    20:00 +27°C° 0 mm 2 mps 755 mmHg 26%
    21:00 +26°C° 0 mm 2 mps 755 mmHg 28%
    22:00 +26°C° 0 mm 2 mps 756 mmHg 29%
    23:00 +25°C° 0 mm 2 mps 756 mmHg 31%

    17 November, Sunday

    Time Temperature Precipitation Wind Pressure Humidity
    00:00 +24°C° 0 mm 2 mps 756 mmHg 31%
    01:00 +24°C° 0 mm 2 mps 756 mmHg 32%
    02:00 +23°C° 0 mm 2 mps 756 mmHg 32%
    03:00 +23°C° 0 mm 2 mps 756 mmHg 31%
    04:00 +23°C° 0 mm 1 mps 756 mmHg 29%
    05:00 +22°C° 0 mm 1 mps 757 mmHg 28%
    06:00 +24°C° 0 mm 1 mps 757 mmHg 25%
    07:00 +27°C° 0 mm 2 mps 757 mmHg 22%
    08:00 +29°C° 0 mm 2 mps 757 mmHg 19%
    09:00 +31°C° 0 mm 2 mps 757 mmHg 16%
    10:00 +35°C° 0 mm 2 mps 757 mmHg 13%
    11:00 +37°C° 0 mm 2 mps 757 mmHg 10%
    12:00 +37°C° 0 mm 2 mps 757 mmHg 11%
    13:00 +38°C° 0 mm 2 mps 756 mmHg 11%
    14:00 +38°C° 0 mm 2 mps 756 mmHg 11%
    15:00 +37°C° 0 mm 3 mps 756 mmHg 14%
    16:00 +36°C° 0 mm 3 mps 756 mmHg 16%
    17:00 +35°C° 0 mm 4 mps 755 mmHg 18%
    18:00 +33°C° 0 mm 4 mps 756 mmHg 24%
    19:00 +32°C° 0 mm 4 mps 756 mmHg 30%
    20:00 +30°C° 0 mm 4 mps 756 mmHg 35%
    21:00 +29°C° 0 mm 5 mps 757 mmHg 38%
    22:00 +29°C° 0 mm 5 mps 757 mmHg 40%
    23:00 +28°C° 0 mm 5 mps 757 mmHg 43%
    Show more